Regional Weather Roundup
Issued by NWS

Home | Current Version | Previous Version | Text Only | Print | Product List | Glossary On
Versions: 1 2 3 4 5 6 7 8 9 10 11 12 13 14 15 16 17 18 19 20 21 22 23 24 25 26 27 28 29 30 31 32 33 34 35 36 37 38 39 40 41 42 43 44 45 46 47 48 49 50
000
ASUS43 KOAX 230510
RWRNE

WEATHER ROUNDUP FOR NEBRASKA
NATIONAL WEATHER SERVICE OMAHA NE
1200 AM CDT THU MAR 23 2017

NOTES: SATELLITE DATA IS BEING USED TO AUGMENT CLOUD COVER ABOVE
       12000 FEET.
       "FAIR" INDICATES FEW OR NO CLOUDS BELOW 12,000 FEET WITH NO
       SIGNIFICANT WEATHER AND/OR OBSTRUCTIONS TO VISIBILITY.

  * THESE STATIONS DO NOT REPORT WEATHER SUCH AS RAIN...SNOW OR FOG.

NEZ001>004-019>022-054>056-230600-
NEBRASKA PANHANDLE

CITY           SKY/WX    TMP DP  RH WIND       PRES   REMARKS
SCOTTSBLUFF    CLOUDY    50  36  58 E20       29.81F
ALLIANCE       CLOUDY    45  35  68 S21G30    29.83F
CHADRON        PTCLDY    53  37  54 S30G38    29.74F
KIMBALL        CLOUDY    52  40  61 S18G24    29.84F
SIDNEY         CLOUDY    50  38  63 S17       29.87F
$$

NEZ057>060-069>072-079>082-230600-
SOUTHWEST NEBRASKA

CITY           SKY/WX    TMP DP  RH WIND       PRES   REMARKS
NORTH PLATTE   CLOUDY    43  30  60 SE10      29.95F
IMPERIAL       CLOUDY    45  33  63 SE17G25   29.92F
LEXINGTON      CLOUDY    46  32  58 SE14      29.99F
MCCOOK         CLOUDY    44  35  70 SE12      29.96F
OGALLALA       CLOUDY    45  32  61 SE6       29.92F
$$

NEZ005>010-023>029-035>040-094-230600-
NORTH CENTRAL NEBRASKA

CITY           SKY/WX    TMP DP  RH WIND       PRES   REMARKS
VALENTINE      CLOUDY    44  29  55 S13       29.91F
AINSWORTH      CLOUDY    43  31  63 S15       29.93F
BROKEN BOW     CLOUDY    43  26  51 S12       29.98F
O`NEILL        CLOUDY    50  26  38 S15       30.00F
ORD            CLOUDY    49  23  36 S12       30.00F
THEDFORD       PTCLDY    43  31  62 S13G18    29.94F
$$

NEZ041-046>049-061>064-073>077-083>087-230600-
SOUTH CENTRAL NEBRASKA

CITY           SKY/WX    TMP DP  RH WIND       PRES   REMARKS
GRAND ISLAND   CLOUDY    50  28  42 S20       30.05F
AURORA         CLOUDY    50  26  38 S17G25    30.05F
HASTINGS       CLOUDY    50  28  42 S14       30.05F
HEBRON         CLOUDY    51  26  38 SE14      30.08F
HOLDREGE       PTCLDY    47  33  57 S16       30.00F
KEARNEY *      CLOUDY    48  28  46 S21       30.03R
YORK           CLOUDY    50  27  40 S17G24    30.07F
$$

NEZ011>018-030>034-042>045-230600-
NORTHEAST NEBRASKA

CITY           SKY/WX    TMP DP  RH WIND       PRES   REMARKS
NORFOLK        CLOUDY    45  26  47 SE14      30.05F
ALBION         CLOUDY    52  25  35 S14G24    30.04S
BLAIR          CLOUDY    45  26  47 SE16G24   30.12F
FREMONT        CLOUDY    46  27  47 SE15G21   30.12F
TEKAMAH        CLOUDY    44  25  47 SE18      30.14F
WAYNE          CLOUDY    43  28  56 SE16      30.08F
$$

NEZ050>053-065>068-078-088>093-230600-
SOUTHEAST NEBRASKA

CITY           SKY/WX    TMP DP  RH WIND       PRES   REMARKS
LINCOLN        CLOUDY    50  26  39 SE15      30.13F
OMAHA EPPLEY   CLOUDY    46  24  42 SE22      30.15F
BEATRICE       CLOUDY    51  28  40 SE10      30.12S
FALLS CITY     CLOUDY    49  25  39 SE13G24   30.15F
NEBRASKA CITY  CLOUDY    47  18  31 SE14G22   30.15F
PLATTSMOUTH    CLOUDY    46  21  38 SE13      30.15F
$$

NEZ044-045-051>053-067-230600-
OMAHA AREA

CITY           SKY/WX    TMP DP  RH WIND       PRES   REMARKS
OMAHA EPPLEY   CLOUDY    46  24  42 SE22      30.15F
BLAIR          CLOUDY    45  26  47 SE16G24   30.12F
FREMONT        CLOUDY    46  27  47 SE15G21   30.12F
MILLARD        CLOUDY    47  28  46 SE14G22   30.14F
OFFUTT AFB     MOCLDY    45  23  41 SE17      30.15F
PLATTSMOUTH    CLOUDY    46  21  38 SE13      30.15F
WAHOO          CLOUDY    47  25  42 SE18G24   30.12F
$$



USA.gov is the U.S. government's official web portal to all federal, state and local government web resources and services.